FW0639 Weather Reports


Display with metric or nautical units.
time (UTC)temp
F
wind
direction
speed
MPH
gust
MPH
rain 1hr
in
rain 24hr
in
rain mn
in
humidity
%
barometer
mb
20260510025220 55 304 0.0 0.0 0.00 0.00 0.00 66 1014.8
20260510024204 55 304 0.0 0.0 0.00 0.00 0.00 66 1014.7
20260510023145 56 304 0.0 0.0 0.00 0.00 0.00 63 1014.6
20260510021019 59 305 0.0 0.0 0.00 0.00 0.00 58 1014.3
20260510020007 59 305 0.0 0.0 0.00 0.00 0.00 53 1014.2
20260510014939 60 305 0.0 0.0 0.00 0.00 0.00 53 1014.2
20260510012813 61 305 0.0 0.0 0.00 0.00 0.00 50 1014.2
20260510011751 61 305 0.0 1.0 0.00 0.00 0.00 50 1014.2
20260510010814 61 305 0.0 0.0 0.00 0.00 0.00 49 1014.1
20260510005750 62 305 0.0 0.0 0.00 0.00 0.00 49 1014.0
20260510002441 63 341 0.0 3.0 0.00 0.00 0.00 49 1013.8
20260510001426 63 341 0.0 1.0 0.00 0.00 0.00 47 1014.0
20260510000437 64 21 0.0 4.0 0.00 0.00 0.00 46 1014.1
20260509235453 64 347 0.0 3.0 0.00 0.00 0.00 45 1014.0
20260509234516 63 6 0.0 1.0 0.00 0.00 0.00 46 1013.8
20260509233504 63 2 1.0 4.0 0.00 0.00 0.00 48 1013.8
20260509232437 62 355 0.0 3.0 0.00 0.00 0.00 50 1013.8
20260509231421 61 340 0.0 0.0 0.00 0.00 0.00 50 1013.7
20260509230434 62 313 0.0 0.0 0.00 0.00 0.00 50 1013.6
20260509225401 61 318 1.0 5.0 0.00 0.00 0.00 52 1013.7
20260509224420 61 318 2.0 5.0 0.00 0.00 0.00 54 1013.6
20260509223415 60 352 1.0 5.0 0.00 0.00 0.00 56 1013.6
20260509222400 59 355 1.0 3.0 0.00 0.00 0.00 56 1013.5
20260509221422 57 342 2.0 4.0 0.00 0.00 0.00 59 1013.4
20260509220430 58 341 2.0 6.0 0.00 0.00 0.00 58 1013.5
20260509215412 59 341 2.0 9.0 0.00 0.00 0.00 55 1013.5
20260509214349 63 332 2.0 9.0 0.00 0.00 0.00 48 1013.3
20260509213317 64 344 3.0 9.0 0.00 0.00 0.00 44 1013.1
20260509212324 64 351 2.0 9.0 0.00 0.00 0.00 47 1013.1
20260509211336 63 342 2.0 6.0 0.00 0.00 0.00 48 1013.1
20260509210337 63 340 3.0 8.0 0.00 0.00 0.00 49 1013.0
20260509205317 62 340 2.0 9.0 0.00 0.00 0.00 50 1013.0
20260509204325 62 340 2.0 9.0 0.00 0.00 0.00 51 1012.8
20260509203256 62 357 1.0 7.0 0.00 0.00 0.00 50 1012.8
20260509194829 58 339 2.0 8.0 0.00 0.00 0.00 61 1012.6
20260509193808 58 339 3.0 12.0 0.00 0.00 0.00 63 1012.6
20260509192821 59 338 1.0 12.0 0.00 0.00 0.00 64 1012.5
20260509191747 58 338 1.0 6.0 0.00 0.00 0.00 63 1012.4
20260509190727 57 338 2.0 8.0 0.00 0.00 0.00 66 1012.3
20260509184523 57 338 2.0 8.0 0.00 0.00 0.00 71 1012.2
20260509183500 56 338 1.0 6.0 0.00 0.00 0.00 72 1012.1
20260509182514 56 338 1.0 4.0 0.00 0.00 0.00 70 1012.2
20260509181525 56 338 1.0 0.0 0.00 0.00 0.00 74 1012.0
20260509180550 55 338 1.0 6.0 0.00 0.00 0.00 74 1011.8